Regional Weather Roundup
Issued by NWS Bismarck, ND

Home | Current Version | Previous Version | Text Only | Print | Product List | Glossary On
Versions: 1 2 3 4 5 6 7 8 9 10 11 12 13 14 15 16 17 18 19 20 21 22 23 24 25 26 27 28 29 30 31 32 33 34 35 36 37 38 39 40 41 42 43 44 45 46 47 48 49 50
000
ASUS43 KBIS 011520
RWRBIS

NWR BROADCAST TEXT
NATIONAL WEATHER SERVICE BISMARCK ND
900 AM CST SUN FEB 01 2015

NOTE: "FAIR" INDICATES FEW OR NO CLOUDS BELOW 12,000 FEET WITH NO
SIGNIFICANT WEATHER AND/OR OBSTRUCTIONS TO VISIBILITY.


CITY           SKY/WX    TMP DP  RH WIND       PRES   REMARKS
WILLISTON      MOCLDY   -15 -19  82 SW5       30.50S WCI -27
MINOT          PTCLDY   -10 -17  71 W5        30.50F WCI -22
MINOT AFB      PTCLDY   -13 -19  77 W3        30.49F
BISMARCK       MOCLDY    -7 -17  62 NW10      30.54R WCI -25
DICKINSON      MOCLDY    -9 -13  83 NW3       30.39F
GARRISON         N/A    -13 -19  75 NW6       30.48F WCI -27
HETTINGER ARPT MOCLDY    -5 -10  79 NW5       30.40S WCI -16
JAMESTOWN      MOCLDY    -8 -17  64 N14       30.48R WCI -29
BEACH          FAIR      -9 -13  84 W6        30.42S WCI -23
CARRINGTON     FAIR      -9 -17  70 MISG      30.51S
CROSBY         FAIR      -8 -13  77 SW5       30.47F WCI -19
HARVEY         FAIR     -11 -18  70 NW6       30.52S WCI -25
HAZEN          FAIR     -11 -18  70 CALM      30.52F
LINTON         FAIR      -4 -13  65 N14       30.48R WCI -24
MANDAN         FAIR      -8 -17  65 N10       30.50R WCI -26
OAKES            N/A     -2 N/A N/A N21       30.45R WCI -25
RUGBY          FAIR     -13 -20  70 CALM      30.52F
STANLEY        FAIR     -13 -18  77 SW3       30.43F
TIOGA          FAIR     -15 -18  84 W5        30.47S WCI -27
WATFORD CITY   FAIR     -13 -18  77 SW3       30.46F
$$

CITY           SKY/WX    TMP DP  RH WIND       PRES   REMARKS
GRAND FORKS    MOCLDY   -11 -19  68 N13       30.58S WCI -32
GRAND FORKS AF PTCLDY   -11 -21  61 N13       30.58S WCI -32
DEVILS LAKE    PTCLDY   -11 -22  58 N8        30.51S WCI -28
FARGO          CLOUDY    -7 -15  68 N18       30.52R WCI -30
CANDO          FAIR     -13 -20  70 NW5       30.53F WCI -25
CAVALIER       FAIR     -11 -18  70 NW6       30.60S WCI -25
GWINNER        MOSUNNY   -2 -13  60 N20       30.46R WCI -25
ROLLA          FAIR     -13 -20  70 SW6       30.47F WCI -27
WALHALLA         N/A    -11 -20  64 W6        30.59F WCI -25
$$

CITY           SKY/WX    TMP DP  RH WIND       PRES   REMARKS
ABERDEEN       CLOUDY    -1 -10  65 N22       30.43R WCI -24
MOBRIDGE       LGT SNOW  -3 -10  72 N13       30.44R WCI -22
BUFFALO          N/A     -4  -9  79 W6        30.30R WCI -16
RAPID CITY     PTCLDY    -1  -5  82 N15       30.33R WCI -21
GLASGOW        CLEAR     -9 -13  83 SE8       30.41F FOG     WCI -25
SIDNEY         PTCLDY   -11 -22  58 CALM      30.51S
WOLF POINT     PTCLDY   -12 -17  78 CALM      30.49F
GLENDIVE       MOCLDY   -11 -20  64 W3        30.44S
MILES CITY     CLEAR     -4  -7  87 W3        30.43F
BAKER          MOCLDY    -9 -13  83 W7        30.40S WCI -24
$$

CITY           SKY/WX    TMP DP  RH WIND       PRES   REMARKS
BILLINGS       PTCLDY     6   3  87 S5        30.33F WCI  -3
GREAT FALLS    PTCLDY    -7 -10  87 CALM      30.19F
REGINA         PTCLDY   -15 -18  84 SE7       30.43F WCI -31
ESTEVAN        PTCLDY   -11 -17  77 SW5       30.47F WCI -23
$$



USA.gov is the U.S. government's official web portal to all federal, state and local government web resources and services.